Location: Dzierzno
(50.6159°N, 19.2852°E)
Time: 23:07:52
(UTC+00:00)

SPOT 1/Viking Rocket - Pass Details

Date: 18 November 2025
Orbit: 773 x 788 km, 98.2° (Epoch: 05 December)

Event Time Altitude Azimuth Distance (km) Brightness Sun altitude
Rises 16:38:52 0° 159° (SSE) 3,258 6.7 -16.5°
Reaches altitude 10° 16:41:10 10° 159° (SSE) 2,336 5.9 -16.9°
Maximum altitude 16:46:19 79° 73° (ENE) 806 3.4 -17.7°
Drops below altitude 10° 16:51:32 10° 348° (NNW) 2,361 6.1 -18.5°
Sets 16:53:52 0° 347° (NNW) 3,296 6.9 -18.9°
